Powrót do katalogu

ELEKTRON 1

AktywnyNaukaHEO
NORAD 746·PAYLOAD·🇷🇺 Russia

Wystrzelony Jan 30, 1964 z Baikonur Cosmodrome

Loading…

Następne Przeloty (najbliższe 24 godziny)

TLE

ŚwieżeSource: Space-Track

Epoka: Sep 14, 2026, 12:20 UTC

1 00746U 64006A   26257.51401259  .00000530  00000-0  15268-3 0  9995
2 00746  60.8866  67.1009 2996384 249.8273  75.8402  9.10988490 75389

Śledź ELEKTRON 1 w czasie rzeczywistym z AllMySat

Download on the App Store